Regional Weather Roundup
Issued by NWS

Home | Current Version | Previous Version | Text Only | Print | Product List | Glossary On
Versions: 1 2 3 4 5 6 7 8 9 10 11 12 13 14 15 16 17 18 19 20 21 22 23 24 25 26 27 28 29 30 31 32 33 34 35 36 37 38 39 40 41 42 43 44 45 46 47 48 49 50
000
ASUS46 KPQR 212310
RWROR

OREGON REGIONAL WEATHER ROUNDUP
NATIONAL WEATHER SERVICE PORTLAND OR
300 PM PST SUN DEC 21 2014

NOTE: "FAIR" INDICATES FEW OR NO CLOUDS BELOW 12,000 FEET WITH
NO SIGNIFICANT WEATHER AND/OR OBSTRUCTIONS TO VISIBILITY.

ORZ001>013-220000-
NORTHWEST OREGON


CITY           SKY/WX    TMP DP  RH WIND       PRES   REMARKS
ASTORIA        CLOUDY    54  51  90 W9        30.08R
NEWPORT        CLOUDY    54  52  94 SW8       30.18R FOG
PORTLAND       CLOUDY    54  50  86 S5        30.09R
VANCOUVER WA   CLOUDY    55  47  74 CALM      30.08R
SCAPPOOSE      CLOUDY    55  47  74 S3        30.06R
HILLSBORO      CLOUDY    55  47  74 SW7       30.07S
AURORA         CLOUDY    53  50  89 S9        30.11R
MCMINNVILLE    CLOUDY    56  50  80 SW12      30.11R
SALEM          LGT RAIN  54  50  86 S6        30.12R
CORVALLIS      CLOUDY    54  48  82 CALM      30.14R
EUGENE         CLOUDY    54  49  83 W6        30.16R
$$

ORZ021-028-220000-
SOUTHWEST OREGON


CITY           SKY/WX    TMP DP  RH WIND       PRES   REMARKS
NORTH BEND     CLOUDY    57  55  94 W9        30.20S
BROOKINGS      LGT RAIN  57  57 100 VRB3      30.28R VSB<1/4
ROSEBURG       CLOUDY    58  54  86 CALM      30.18R FOG
SEXTON SUMMIT  FOG       49  49 100 SW8G21    30.20R VSB<1/4
MEDFORD        CLOUDY    63  55  75 N3        30.17R
$$

ORZ014>016-041-220000-
COLUMBIA GORGE


CITY           SKY/WX    TMP DP  RH WIND       PRES   REMARKS
TROUTDALE      CLOUDY    55  49  80 SW8       30.08R
THE DALLES     CLOUDY    52  46  80 E3        30.03R
$$

ORZ029>031-041-044-049-050-061>064-502-503-505>511-220000-
EASTERN OREGON


CITY           SKY/WX    TMP DP  RH WIND       PRES   REMARKS
REDMOND        LGT RAIN  45  42  89 NW9       30.07R
BEND           LGT RAIN  45  41  87 N6        30.08S
PRINEVILLE     CLOUDY    46  43  87 W5        30.09S
KLAMATH FALLS  CLOUDY    52  46  80 W22G29    30.17R
LAKEVIEW       CLOUDY    48  45  87 SW16      30.15R
HERMISTON      CLOUDY    54  42  64 W21G28    30.00R
PENDLETON      CLOUDY    50  40  68 W20       29.98R
JOHN DAY       LGT RAIN  42  40  95 W12       30.04R
MEACHAM        CLOUDY    42  36  79 VRB6      29.98R
LA GRANDE      CLOUDY    46  30  53 NW15      29.98S
BAKER CITY     NOT AVBL
BURNS          CLOUDY    46  39  76 W17G23    30.04R
ROME             N/A     54  40  59 W15G22    30.00R
ONTARIO        LGT RAIN  48  40  73 NW13      30.06R
$$


USA.gov is the U.S. government's official web portal to all federal, state and local government web resources and services.